STARLINK-1918 (46768 NORAD) Tracking and Keplerian Element Data
This shows tracking and keplerian element data for the satellite.
Feedback or suggestion? Click here.
Element | Value |
Catalog | 46768 |
Name | STARLINK-1918 |
Epoch Orbit | 175 |
Epoch Day | 14.91667824 |
Epoch Year | 2021 |
RAAN | 135.2353 |
Inclination | 53.0538 |
Eccentricity | 0.0001648 |
Argument of Perigee | 96.1497 |
Mean Anonmoly | 180.1333 |
Mean Motion | 15.06409219 |
Decay Rate | -0.00024568 |
L1 | 1 46768U 20074AF 21014.91667824 -.00024568 00000-0 -16357-2 0 9996 |
L2 | 2 46768 53.0538 135.2353 0001648 96.1497 180.1333 15.06409219 1753 |
Live tracking and technical data element details for STARLINK-1918 (NORAD 46768). STARLINK-1918 can be tracked NOW for your location showing map with azimuth and elevation plus other details from your city location.
Track the satellite on the map from your city or location and see movement details for azimuth, elevation, latitude, longitude, range, height, and movement on the map or in text.
IsCatalogInMostPopularTable: catalog: 46768, numindb: 29
Update: records affected: 1
GetName: 46768 STARLINK-1918
Hit Count: updated at: Fri, 15 Jan 2021 22:51:10 GMT